TimeCST,TemperatureF,Dew PointF,Humidity,Sea Level PressureIn,VisibilityMPH,Wind Direction,Wind SpeedMPH,Gust SpeedMPH,PrecipitationIn,Events,Conditions,WindDirDegrees,DateUTC
12:15 AM,28.4,26.6,93,29.97,4.0,SSE,9.2,17.3,N/A,,Overcast,150,2012-12-01 06:15:00
12:35 AM,28.4,26.6,93,29.97,3.0,SSE,12.7,-,N/A,,Overcast,150,2012-12-01 06:35:00
12:55 AM,28.4,26.6,93,29.96,2.5,SSE,12.7,16.1,N/A,,Overcast,150,2012-12-01 06:55:00
1:15 AM,28.4,26.6,93,29.95,1.8,SSE,11.5,17.3,N/A,,Overcast,150,2012-12-01 07:15:00
1:35 AM,28.4,26.6,93,29.96,1.5,SSE,9.2,17.3,N/A,,Overcast,150,2012-12-01 07:35:00
1:55 AM,28.4,26.6,93,29.95,1.2,South,12.7,17.3,N/A,,Overcast,170,2012-12-01 07:55:00
2:15 AM,28.4,28.4,100,29.93,1.2,SE,9.2,20.7,N/A,,Overcast,140,2012-12-01 08:15:00
2:35 AM,30.2,28.4,93,29.93,1.2,SSE,10.4,17.3,N/A,,Overcast,160,2012-12-01 08:35:00
2:55 AM,30.2,28.4,93,29.91,1.2,SSE,12.7,-,N/A,,Overcast,150,2012-12-01 08:55:00
3:15 AM,30.2,28.4,93,29.90,1.5,SSE,13.8,20.7,N/A,,Overcast,150,2012-12-01 09:15:00
3:35 AM,30.2,28.4,93,29.89,1.5,SSE,13.8,18.4,N/A,,Overcast,150,2012-12-01 09:35:00
3:55 AM,30.2,28.4,93,29.87,1.5,SE,12.7,-,N/A,,Overcast,140,2012-12-01 09:55:00
4:15 AM,30.2,28.4,93,29.86,1.5,SSE,12.7,18.4,N/A,,Overcast,150,2012-12-01 10:15:00
4:35 AM,30.2,28.4,93,29.85,1.5,SSE,16.1,20.7,N/A,,Overcast,150,2012-12-01 10:35:00
4:55 AM,30.2,28.4,93,29.83,1.5,SSE,13.8,21.9,N/A,,Overcast,150,2012-12-01 10:55:00
5:15 AM,30.2,30.2,100,29.83,1.5,SSE,12.7,-,N/A,,Overcast,150,2012-12-01 11:15:00
5:35 AM,30.2,30.2,100,29.82,1.2,SE,9.2,17.3,N/A,,Overcast,140,2012-12-01 11:35:00
5:55 AM,32.0,30.2,93,29.83,1.2,SSE,11.5,17.3,N/A,,Overcast,150,2012-12-01 11:55:00
6:15 AM,32.0,30.2,93,29.82,1.2,SSE,13.8,18.4,N/A,,Overcast,150,2012-12-01 12:15:00
6:35 AM,32.0,30.2,93,29.80,1.2,SSE,13.8,21.9,N/A,,Overcast,150,2012-12-01 12:35:00
6:55 AM,32.0,30.2,93,29.79,1.0,SSE,15.0,23.0,N/A,,Overcast,150,2012-12-01 12:55:00
7:15 AM,32.0,30.2,93,29.77,1.0,SSE,17.3,24.2,N/A,,Overcast,150,2012-12-01 13:15:00
7:35 AM,33.8,30.2,87,29.76,1.0,SSE,19.6,26.5,N/A,,Overcast,150,2012-12-01 13:35:00
7:55 AM,33.8,30.2,87,29.76,0.5,SSE,11.5,25.3,N/A,,Overcast,150,2012-12-01 13:55:00
8:15 AM,33.8,32.0,93,29.76,0.5,SSE,15.0,19.6,N/A,,Overcast,150,2012-12-01 14:15:00
8:35 AM,33.8,32.0,93,29.77,0.5,SSE,13.8,18.4,N/A,,Overcast,160,2012-12-01 14:35:00
8:55 AM,33.8,32.0,93,29.78,0.5,SSE,10.4,19.6,N/A,,Overcast,160,2012-12-01 14:55:00
9:15 AM,33.8,32.0,93,29.77,0.5,SSE,11.5,-,N/A,,Overcast,160,2012-12-01 15:15:00
9:35 AM,33.8,32.0,93,29.77,0.5,SSE,8.1,-,N/A,,Overcast,160,2012-12-01 15:35:00
9:55 AM,33.8,32.0,93,29.78,0.5,South,9.2,-,N/A,,Overcast,170,2012-12-01 15:55:00
10:15 AM,33.8,32.0,93,29.77,0.5,South,11.5,-,N/A,,Overcast,170,2012-12-01 16:15:00
10:35 AM,33.8,32.0,93,29.76,0.5,SSE,8.1,-,N/A,,Overcast,160,2012-12-01 16:35:00
10:55 AM,33.8,32.0,93,29.76,0.5,SSE,11.5,-,N/A,,Overcast,160,2012-12-01 16:55:00
11:15 AM,33.8,33.8,100,29.74,0.5,SSE,8.1,-,N/A,,Overcast,150,2012-12-01 17:15:00
11:35 AM,33.8,33.8,100,29.74,0.5,SSE,10.4,-,N/A,,Overcast,160,2012-12-01 17:35:00
11:55 AM,33.8,33.8,100,29.73,0.5,SSE,9.2,-,N/A,,Overcast,150,2012-12-01 17:55:00
12:15 PM,33.8,32.0,93,29.73,0.5,SSE,9.2,-,N/A,,Overcast,160,2012-12-01 18:15:00
12:35 PM,33.8,33.8,100,29.72,0.2,SSE,6.9,-,N/A,,Overcast,160,2012-12-01 18:35:00
12:55 PM,33.8,33.8,100,29.71,0.2,South,5.8,-,N/A,,Overcast,170,2012-12-01 18:55:00
1:15 PM,33.8,33.8,100,29.71,0.2,SSE,4.6,-,N/A,,Overcast,160,2012-12-01 19:15:00
1:35 PM,35.6,33.8,93,29.70,0.2,SSE,5.8,-,N/A,,Overcast,150,2012-12-01 19:35:00
1:55 PM,35.6,33.8,93,29.71,0.2,SSE,4.6,-,N/A,,Overcast,150,2012-12-01 19:55:00
2:15 PM,33.8,33.8,100,29.71,0.2,SSE,4.6,-,N/A,,Overcast,150,2012-12-01 20:15:00
2:35 PM,33.8,33.8,100,29.71,0.2,SSE,3.5,-,N/A,,Overcast,160,2012-12-01 20:35:00
2:55 PM,35.6,33.8,93,29.71,0.2,Calm,Calm,-,N/A,,Overcast,0,2012-12-01 20:55:00
3:15 PM,33.8,33.8,100,29.72,0.2,Calm,Calm,-,N/A,,Overcast,0,2012-12-01 21:15:00
3:35 PM,33.8,33.8,100,29.72,0.2,Calm,Calm,-,N/A,,Overcast,0,2012-12-01 21:35:00
3:55 PM,33.8,33.8,100,29.73,0.2,Calm,Calm,-,N/A,,Overcast,0,2012-12-01 21:55:00
4:15 PM,33.8,33.8,100,29.74,0.2,Calm,Calm,-,N/A,,Overcast,0,2012-12-01 22:15:00
4:35 PM,35.6,33.8,93,29.74,1.0,West,3.5,-,N/A,,Overcast,260,2012-12-01 22:35:00
4:55 PM,35.6,33.8,93,29.75,2.5,West,5.8,-,N/A,,Overcast,280,2012-12-01 22:55:00
5:15 PM,33.8,33.8,100,29.75,2.0,NW,3.5,-,N/A,,Overcast,320,2012-12-01 23:15:00
5:35 PM,35.6,33.8,93,29.76,2.0,NW,4.6,-,N/A,,Overcast,310,2012-12-01 23:35:00
5:55 PM,35.6,33.8,93,29.76,1.8,NW,4.6,-,N/A,,Overcast,310,2012-12-01 23:55:00
6:15 PM,33.8,33.8,100,29.76,1.8,NW,3.5,-,N/A,,Overcast,310,2012-12-02 00:15:00
6:35 PM,33.8,33.8,100,29.76,1.8,NW,3.5,-,N/A,,Overcast,320,2012-12-02 00:35:00
6:55 PM,33.8,33.8,100,29.76,1.8,NNW,4.6,-,N/A,,Overcast,340,2012-12-02 00:55:00
7:15 PM,33.8,32.0,93,29.76,2.0,Calm,Calm,-,N/A,,Overcast,0,2012-12-02 01:15:00
7:35 PM,33.8,32.0,93,29.76,1.5,Calm,Calm,-,N/A,,Overcast,0,2012-12-02 01:35:00
7:55 PM,33.8,32.0,93,29.77,1.5,NW,3.5,-,N/A,,Overcast,320,2012-12-02 01:55:00
8:15 PM,33.8,32.0,93,29.78,2.0,Calm,Calm,-,N/A,,Overcast,0,2012-12-02 02:15:00
8:35 PM,33.8,32.0,93,29.78,2.0,NNW,4.6,-,N/A,,Overcast,330,2012-12-02 02:35:00
8:55 PM,33.8,32.0,93,29.79,2.0,Calm,Calm,-,N/A,,Overcast,0,2012-12-02 02:55:00
9:15 PM,33.8,32.0,93,29.80,2.0,Calm,Calm,-,N/A,,Overcast,0,2012-12-02 03:15:00
9:35 PM,33.8,30.2,87,29.81,0.8,Calm,Calm,-,N/A,,Overcast,0,2012-12-02 03:35:00
9:55 PM,33.8,32.0,93,29.81,1.8,South,3.5,-,N/A,,Overcast,190,2012-12-02 03:55:00
10:15 PM,33.8,32.0,93,29.81,2.0,Calm,Calm,-,N/A,,Overcast,0,2012-12-02 04:15:00
10:35 PM,33.8,32.0,93,29.82,2.0,Calm,Calm,-,N/A,,Overcast,0,2012-12-02 04:35:00
10:55 PM,33.8,32.0,93,29.83,2.5,West,4.6,-,N/A,,Overcast,280,2012-12-02 04:55:00
11:15 PM,33.8,32.0,93,29.84,2.5,West,5.8,-,N/A,,Overcast,280,2012-12-02 05:15:00
11:35 PM,33.8,32.0,93,29.83,2.5,NW,4.6,-,N/A,,Overcast,320,2012-12-02 05:35:00
11:55 PM,33.8,32.0,93,29.84,2.0,WNW,5.8,-,N/A,,Overcast,300,2012-12-02 05:55:00